Time,TemperatureF,DewpointF,PressureIn,WindDirection,WindDirectionDegrees,WindSpeedMPH,WindSpeedGustMPH,Humidity,HourlyPrecipIn,Conditions,Clouds,dailyrainin,SoftwareType,DateUTC
2013-06-12 00:12:00,52.0,-99.9,-100.00,North,-999,-999.0,-999.0,-999,0.00,,,0.07,,2013-06-12 06:12:00,
2013-06-12 00:22:00,52.0,-99.9,-100.00,North,-999,-999.0,-999.0,-999,0.00,,,0.07,,2013-06-12 06:22:00,
2013-06-12 00:32:00,52.0,-99.9,-100.00,North,-999,-999.0,-999.0,-999,0.00,,,0.07,,2013-06-12 06:32:00,
2013-06-12 00:42:00,52.0,-99.9,-100.00,North,-999,-999.0,-999.0,-999,0.00,,,0.07,,2013-06-12 06:42:00,
2013-06-12 01:12:00,50.0,-99.9,-100.00,North,-999,-999.0,-999.0,-999,0.00,,,0.07,,2013-06-12 07:12:00,
2013-06-12 01:23:00,50.0,-99.9,-100.00,North,-999,-999.0,-999.0,-999,0.00,,,0.07,,2013-06-12 07:23:00,
2013-06-12 01:33:00,50.0,-99.9,-100.00,North,-999,-999.0,-999.0,-999,0.00,,,0.07,,2013-06-12 07:33:00,
2013-06-12 01:43:00,50.0,-99.9,-100.00,North,-999,-999.0,-999.0,-999,0.00,,,0.07,,2013-06-12 07:43:00,
2013-06-12 02:12:00,48.0,-99.9,-100.00,North,-999,-999.0,-999.0,-999,0.01,,,0.08,,2013-06-12 08:12:00,
2013-06-12 02:22:00,48.0,-99.9,-100.00,North,-999,-999.0,-999.0,-999,0.01,,,0.08,,2013-06-12 08:22:00,
2013-06-12 02:33:00,48.0,-99.9,-100.00,North,-999,-999.0,-999.0,-999,0.01,,,0.08,,2013-06-12 08:33:00,
2013-06-12 02:43:00,48.0,-99.9,-100.00,North,-999,-999.0,-999.0,-999,0.01,,,0.08,,2013-06-12 08:43:00,
2013-06-12 03:12:00,46.0,-99.9,-100.00,North,-999,-999.0,-999.0,-999,-99.99,,,0.07,,2013-06-12 09:12:00,
2013-06-12 03:22:00,46.0,-99.9,-100.00,North,-999,-999.0,-999.0,-999,-99.99,,,0.07,,2013-06-12 09:22:00,
2013-06-12 03:34:00,46.0,-99.9,-100.00,North,-999,-999.0,-999.0,-999,-99.99,,,0.07,,2013-06-12 09:34:00,
2013-06-12 03:43:00,46.0,-99.9,-100.00,North,-999,-999.0,-999.0,-999,-99.99,,,0.07,,2013-06-12 09:43:00,
2013-06-12 04:12:00,45.0,-99.9,-100.00,North,-999,-999.0,-999.0,-999,0.01,,,0.08,,2013-06-12 10:12:00,
2013-06-12 04:23:00,45.0,-99.9,-100.00,North,-999,-999.0,-999.0,-999,0.01,,,0.08,,2013-06-12 10:23:00,
2013-06-12 04:33:00,45.0,-99.9,-100.00,North,-999,-999.0,-999.0,-999,0.01,,,0.08,,2013-06-12 10:33:00,
2013-06-12 04:43:00,45.0,-99.9,-100.00,North,-999,-999.0,-999.0,-999,0.01,,,0.08,,2013-06-12 10:43:00,
2013-06-12 05:12:00,45.0,-99.9,-100.00,North,-999,-999.0,-999.0,-999,-99.99,,,0.07,,2013-06-12 11:12:00,
2013-06-12 05:24:00,45.0,-99.9,-100.00,North,-999,-999.0,-999.0,-999,-99.99,,,0.07,,2013-06-12 11:24:00,
2013-06-12 05:34:00,45.0,-99.9,-100.00,North,-999,-999.0,-999.0,-999,-99.99,,,0.07,,2013-06-12 11:34:00,
2013-06-12 05:43:00,45.0,-99.9,-100.00,North,-999,-999.0,-999.0,-999,-99.99,,,0.07,,2013-06-12 11:43:00,
2013-06-12 06:12:00,46.0,-99.9,-100.00,North,-999,-999.0,-999.0,-999,0.01,,,-99.99,,2013-06-12 12:12:00,
2013-06-12 06:23:00,46.0,-99.9,-100.00,North,-999,-999.0,-999.0,-999,0.01,,,-99.99,,2013-06-12 12:23:00,
2013-06-12 06:34:00,46.0,-99.9,-100.00,North,-999,-999.0,-999.0,-999,0.01,,,-99.99,,2013-06-12 12:34:00,
2013-06-12 06:43:00,46.0,-99.9,-100.00,North,-999,-999.0,-999.0,-999,0.01,,,-99.99,,2013-06-12 12:43:00,
2013-06-12 07:22:00,47.0,-99.9,-100.00,North,-999,-999.0,-999.0,-999,-99.99,,,0.08,,2013-06-12 13:22:00,
2013-06-12 07:33:00,47.0,-99.9,-100.00,North,-999,-999.0,-999.0,-999,-99.99,,,0.08,,2013-06-12 13:33:00,
2013-06-12 07:43:00,47.0,-99.9,-100.00,North,-999,-999.0,-999.0,-999,-99.99,,,0.08,,2013-06-12 13:43:00,
2013-06-12 08:24:00,49.0,-99.9,-100.00,North,-999,-999.0,-999.0,-999,0.03,,,0.10,,2013-06-12 14:24:00,
2013-06-12 08:34:00,49.0,-99.9,-100.00,North,-999,-999.0,-999.0,-999,0.03,,,0.10,,2013-06-12 14:34:00,
2013-06-12 08:43:00,49.0,-99.9,-100.00,North,-999,-999.0,-999.0,-999,0.03,,,0.10,,2013-06-12 14:43:00,
2013-06-12 09:12:00,49.0,-99.9,-100.00,North,-999,-999.0,-999.0,-999,0.00,,,0.10,,2013-06-12 15:12:00,
2013-06-12 09:24:00,49.0,-99.9,-100.00,North,-999,-999.0,-999.0,-999,0.00,,,0.10,,2013-06-12 15:24:00,
2013-06-12 09:33:00,49.0,-99.9,-100.00,North,-999,-999.0,-999.0,-999,0.00,,,0.10,,2013-06-12 15:33:00,
2013-06-12 09:43:00,49.0,-99.9,-100.00,North,-999,-999.0,-999.0,-999,0.00,,,0.10,,2013-06-12 15:43:00,
2013-06-12 10:12:00,50.0,-99.9,-100.00,North,-999,-999.0,-999.0,-999,0.01,,,0.11,,2013-06-12 16:12:00,
2013-06-12 10:22:00,50.0,-99.9,-100.00,North,-999,-999.0,-999.0,-999,0.01,,,0.11,,2013-06-12 16:22:00,
2013-06-12 10:33:00,50.0,-99.9,-100.00,North,-999,-999.0,-999.0,-999,0.01,,,0.11,,2013-06-12 16:33:00,
2013-06-12 10:43:00,50.0,-99.9,-100.00,North,-999,-999.0,-999.0,-999,0.01,,,0.11,,2013-06-12 16:43:00,
2013-06-12 11:12:00,53.0,-99.9,-100.00,North,-999,-999.0,-999.0,-999,0.01,,,0.12,,2013-06-12 17:12:00,
2013-06-12 11:23:00,53.0,-99.9,-100.00,North,-999,-999.0,-999.0,-999,0.01,,,0.12,,2013-06-12 17:23:00,
2013-06-12 11:33:00,53.0,-99.9,-100.00,North,-999,-999.0,-999.0,-999,0.01,,,0.12,,2013-06-12 17:33:00,
2013-06-12 11:43:00,53.0,-99.9,-100.00,North,-999,-999.0,-999.0,-999,0.01,,,0.12,,2013-06-12 17:43:00,
2013-06-12 12:12:00,55.0,-99.9,-100.00,North,-999,-999.0,-999.0,-999,0.00,,,-99.99,,2013-06-12 18:12:00,
2013-06-12 12:22:00,55.0,-99.9,-100.00,North,-999,-999.0,-999.0,-999,0.00,,,-99.99,,2013-06-12 18:22:00,
2013-06-12 12:33:00,55.0,-99.9,-100.00,North,-999,-999.0,-999.0,-999,0.00,,,-99.99,,2013-06-12 18:33:00,
2013-06-12 12:43:00,55.0,-99.9,-100.00,North,-999,-999.0,-999.0,-999,0.00,,,-99.99,,2013-06-12 18:43:00,
2013-06-12 13:12:00,58.0,-99.9,-100.00,North,-999,-999.0,-999.0,-999,0.00,,,0.12,,2013-06-12 19:12:00,
2013-06-12 13:22:00,58.0,-99.9,-100.00,North,-999,-999.0,-999.0,-999,0.00,,,0.12,,2013-06-12 19:22:00,
2013-06-12 13:33:00,58.0,-99.9,-100.00,North,-999,-999.0,-999.0,-999,0.00,,,0.12,,2013-06-12 19:33:00,
2013-06-12 13:43:00,58.0,-99.9,-100.00,North,-999,-999.0,-999.0,-999,0.00,,,0.12,,2013-06-12 19:43:00,
2013-06-12 14:12:00,58.0,-99.9,-100.00,North,-999,-999.0,-999.0,-999,0.00,,,0.12,,2013-06-12 20:12:00,
2013-06-12 14:22:00,58.0,-99.9,-100.00,North,-999,-999.0,-999.0,-999,0.00,,,0.12,,2013-06-12 20:22:00,
2013-06-12 14:33:00,58.0,-99.9,-100.00,North,-999,-999.0,-999.0,-999,0.00,,,0.12,,2013-06-12 20:33:00,
2013-06-12 14:43:00,58.0,-99.9,-100.00,North,-999,-999.0,-999.0,-999,0.00,,,0.12,,2013-06-12 20:43:00,
2013-06-12 15:12:00,62.0,-99.9,-100.00,North,-999,-999.0,-999.0,-999,0.00,,,0.12,,2013-06-12 21:12:00,
2013-06-12 15:22:00,62.0,-99.9,-100.00,North,-999,-999.0,-999.0,-999,0.00,,,0.12,,2013-06-12 21:22:00,
2013-06-12 15:33:00,62.0,-99.9,-100.00,North,-999,-999.0,-999.0,-999,0.00,,,0.12,,2013-06-12 21:33:00,
2013-06-12 15:43:00,62.0,-99.9,-100.00,North,-999,-999.0,-999.0,-999,0.00,,,0.12,,2013-06-12 21:43:00,
2013-06-12 16:11:00,63.0,-99.9,-100.00,North,-999,-999.0,-999.0,-999,0.00,,,0.12,,2013-06-12 22:11:00,
2013-06-12 16:22:00,63.0,-99.9,-100.00,North,-999,-999.0,-999.0,-999,0.00,,,0.12,,2013-06-12 22:22:00,
2013-06-12 16:33:00,63.0,-99.9,-100.00,North,-999,-999.0,-999.0,-999,0.00,,,0.12,,2013-06-12 22:33:00,
2013-06-12 16:43:00,63.0,-99.9,-100.00,North,-999,-999.0,-999.0,-999,0.00,,,0.12,,2013-06-12 22:43:00,
2013-06-12 17:12:00,68.0,-99.9,-100.00,North,-999,-999.0,-999.0,-999,0.00,,,0.12,,2013-06-12 23:12:00,
2013-06-12 17:22:00,68.0,-99.9,-100.00,North,-999,-999.0,-999.0,-999,0.00,,,0.12,,2013-06-12 23:22:00,
2013-06-12 17:32:00,68.0,-99.9,-100.00,North,-999,-999.0,-999.0,-999,0.00,,,0.12,,2013-06-12 23:32:00,
2013-06-12 17:43:00,68.0,-99.9,-100.00,North,-999,-999.0,-999.0,-999,0.00,,,0.12,,2013-06-12 23:43:00,
2013-06-12 18:12:00,68.0,-99.9,-100.00,North,-999,-999.0,-999.0,-999,0.01,,,0.13,,2013-06-13 00:12:00,
2013-06-12 18:22:00,68.0,-99.9,-100.00,North,-999,-999.0,-999.0,-999,0.01,,,0.13,,2013-06-13 00:22:00,
2013-06-12 18:33:00,68.0,-99.9,-100.00,North,-999,-999.0,-999.0,-999,0.01,,,0.13,,2013-06-13 00:33:00,
2013-06-12 18:43:00,68.0,-99.9,-100.00,North,-999,-999.0,-999.0,-999,0.01,,,0.13,,2013-06-13 00:43:00,
2013-06-12 19:12:00,66.0,-99.9,-100.00,North,-999,-999.0,-999.0,-999,-99.99,,,0.11,,2013-06-13 01:12:00,
2013-06-12 19:22:00,66.0,-99.9,-100.00,North,-999,-999.0,-999.0,-999,-99.99,,,0.11,,2013-06-13 01:22:00,
2013-06-12 19:33:00,66.0,-99.9,-100.00,North,-999,-999.0,-999.0,-999,-99.99,,,0.11,,2013-06-13 01:33:00,
2013-06-12 19:43:00,66.0,-99.9,-100.00,North,-999,-999.0,-999.0,-999,-99.99,,,0.11,,2013-06-13 01:43:00,
2013-06-12 20:12:00,63.0,-99.9,-100.00,North,-999,-999.0,-999.0,-999,0.00,,,0.08,,2013-06-13 02:12:00,
2013-06-12 20:22:00,63.0,-99.9,-100.00,North,-999,-999.0,-999.0,-999,0.00,,,0.08,,2013-06-13 02:22:00,
2013-06-12 20:33:00,63.0,-99.9,-100.00,North,-999,-999.0,-999.0,-999,0.00,,,0.08,,2013-06-13 02:33:00,
2013-06-12 20:43:00,63.0,-99.9,-100.00,North,-999,-999.0,-999.0,-999,0.00,,,0.08,,2013-06-13 02:43:00,
2013-06-12 21:12:00,59.0,-99.9,-100.00,North,-999,-999.0,-999.0,-999,0.00,,,0.04,,2013-06-13 03:12:00,
2013-06-12 21:22:00,59.0,-99.9,-100.00,North,-999,-999.0,-999.0,-999,0.00,,,0.04,,2013-06-13 03:22:00,
2013-06-12 21:33:00,59.0,-99.9,-100.00,North,-999,-999.0,-999.0,-999,0.00,,,0.04,,2013-06-13 03:33:00,
2013-06-12 21:43:00,59.0,-99.9,-100.00,North,-999,-999.0,-999.0,-999,0.00,,,0.04,,2013-06-13 03:43:00,
2013-06-12 22:12:00,55.0,-99.9,-100.00,North,-999,-999.0,-999.0,-999,0.00,,,0.04,,2013-06-13 04:12:00,
2013-06-12 22:23:00,55.0,-99.9,-100.00,North,-999,-999.0,-999.0,-999,0.00,,,0.04,,2013-06-13 04:23:00,
2013-06-12 22:33:00,55.0,-99.9,-100.00,North,-999,-999.0,-999.0,-999,0.00,,,0.04,,2013-06-13 04:33:00,
2013-06-12 22:43:00,55.0,-99.9,-100.00,North,-999,-999.0,-999.0,-999,0.00,,,0.04,,2013-06-13 04:43:00,
2013-06-12 23:12:00,52.0,-99.9,-100.00,North,-999,-999.0,-999.0,-999,0.00,,,0.05,,2013-06-13 05:12:00,
2013-06-12 23:24:00,52.0,-99.9,-100.00,North,-999,-999.0,-999.0,-999,0.00,,,0.05,,2013-06-13 05:24:00,
2013-06-12 23:33:00,52.0,-99.9,-100.00,North,-999,-999.0,-999.0,-999,0.00,,,0.05,,2013-06-13 05:33:00,
2013-06-12 23:43:00,52.0,-99.9,-100.00,North,-999,-999.0,-999.0,-999,0.00,,,0.05,,2013-06-13 05:43:00,